ANG100 AYPY-AYNZ

Flight info

Callsign ANG100
Flight time N/A
Altitude 24000
Route PY DCT LARID DCT NZ
Aircraft B738/M-SDE2E3FGHIRWXY/LB1

Departure

Time 2026-05-08 11:27
Airport Port Moresby Jacksons International Airport (AYPY)

Arrival

Time N/A
Airport Nadzab Tomodachi International Airport (AYNZ)
Time Latitude Longitude Altitude Speed Heading
2026-05-08 11:00 -9.43764 147.21150 104 ft 0 kts 240°
2026-05-08 11:17 -9.43763 147.21152 114 ft 2 kts 240°
2026-05-08 11:17 -9.43750 147.21175 103 ft 4 kts 240°
2026-05-08 11:18 -9.43738 147.21196 102 ft 3 kts 242°
2026-05-08 11:18 -9.43731 147.21219 103 ft 4 kts 289°
2026-05-08 11:18 -9.43747 147.21237 103 ft 4 kts 328°
2026-05-08 11:18 -9.43755 147.21242 106 ft 0 kts 328°
2026-05-08 11:22 -9.43753 147.21241 106 ft 1 kts 329°
2026-05-08 11:22 -9.43732 147.21240 103 ft 7 kts 15°
2026-05-08 11:22 -9.43686 147.21270 103 ft 8 kts 17°
2026-05-08 11:22 -9.43631 147.21260 106 ft 8 kts 341°
2026-05-08 11:23 -9.43581 147.21235 108 ft 8 kts 333°
2026-05-08 11:23 -9.43535 147.21208 109 ft 8 kts 324°
2026-05-08 11:23 -9.43492 147.21179 107 ft 7 kts 326°
2026-05-08 11:23 -9.43446 147.21150 109 ft 9 kts 329°
2026-05-08 11:24 -9.43384 147.21111 107 ft 13 kts 329°
2026-05-08 11:24 -9.43290 147.21091 104 ft 16 kts 26°
2026-05-08 11:24 -9.43218 147.21192 106 ft 19 kts 58°
2026-05-08 11:24 -9.43144 147.21314 108 ft 20 kts 58°
2026-05-08 11:25 -9.43102 147.21388 110 ft 8 kts 77°
2026-05-08 11:25 -9.43141 147.21423 110 ft 8 kts 158°
2026-05-08 11:25 -9.43149 147.21428 109 ft 0 kts 146°
2026-05-08 11:26 -9.43280 147.21510 108 ft 59 kts 149°
2026-05-08 11:27 -9.43843 147.21858 107 ft 129 kts 148°
2026-05-08 11:27 -9.44766 147.22446 191 ft 179 kts 147°
2026-05-08 11:27 -9.45808 147.23143 1058 ft 173 kts 145°
2026-05-08 11:27 -9.46768 147.23807 1966 ft 169 kts 147°
2026-05-08 11:28 -9.47825 147.24440 2397 ft 190 kts 149°
2026-05-08 11:28 -9.49052 147.25167 2645 ft 217 kts 149°
2026-05-08 11:28 -9.50429 147.25997 2837 ft 243 kts 148°
2026-05-08 11:28 -9.51947 147.26922 3230 ft 262 kts 148°
2026-05-08 11:29 -9.53522 147.27889 3941 ft 267 kts 148°
2026-05-08 11:29 -9.55114 147.28870 4734 ft 268 kts 148°
2026-05-08 11:29 -9.56647 147.29912 5598 ft 265 kts 134°
2026-05-08 11:29 -9.57545 147.31512 6285 ft 266 kts 102°
2026-05-08 11:30 -9.57565 147.33397 6884 ft 272 kts 79°
2026-05-08 11:30 -9.56869 147.35176 7603 ft 275 kts 58°
2026-05-08 11:30 -9.55725 147.36742 8309 ft 279 kts 53°
2026-05-08 11:30 -9.54509 147.38294 8859 ft 283 kts 52°
2026-05-08 11:31 -9.53298 147.39842 8975 ft 281 kts 52°
2026-05-08 11:31 -9.52089 147.41410 9001 ft 284 kts 52°
2026-05-08 11:31 -9.50881 147.42989 9005 ft 283 kts 53°
2026-05-08 11:31 -9.49681 147.44564 9006 ft 282 kts 53°
2026-05-08 11:32 -9.48364 147.46028 8992 ft 283 kts 36°
2026-05-08 11:32 -9.46566 147.46801 9013 ft 285 kts 10°
2026-05-08 11:32 -9.44573 147.46758 9313 ft 293 kts 349°
2026-05-08 11:32 -9.42636 147.46059 9993 ft 297 kts 339°
2026-05-08 11:33 -9.40728 147.45182 10423 ft 310 kts 337°
2026-05-08 11:33 -9.38697 147.44234 10557 ft 332 kts 338°
2026-05-08 11:33 -9.36532 147.43243 10701 ft 351 kts 338°
2026-05-08 11:33 -9.34249 147.42215 10862 ft 367 kts 338°
2026-05-08 11:34 -9.31887 147.41148 11202 ft 375 kts 335°
2026-05-08 11:34 -9.29645 147.39772 11779 ft 379 kts 327°
2026-05-08 11:34 -9.27506 147.38202 12343 ft 381 kts 324°
2026-05-08 11:34 -9.25368 147.36582 12847 ft 386 kts 324°
2026-05-08 11:35 -9.23200 147.34959 13379 ft 390 kts 325°
2026-05-08 11:35 -9.20998 147.33344 13900 ft 393 kts 326°
2026-05-08 11:35 -9.18764 147.31732 14397 ft 395 kts 326°
2026-05-08 11:35 -9.16516 147.30122 14933 ft 397 kts 326°
2026-05-08 11:36 -9.14250 147.28501 15450 ft 400 kts 326°
2026-05-08 11:36 -9.11967 147.26869 15922 ft 403 kts 326°
2026-05-08 11:36 -9.09670 147.25226 16425 ft 406 kts 326°
2026-05-08 11:36 -9.07357 147.23570 16914 ft 409 kts 326°
2026-05-08 11:37 -9.05031 147.21906 17393 ft 411 kts 326°
2026-05-08 11:37 -9.02688 147.20228 17883 ft 414 kts 326°
2026-05-08 11:37 -9.00327 147.18538 18313 ft 417 kts 326°
2026-05-08 11:37 -8.97952 147.16838 18726 ft 420 kts 325°
2026-05-08 11:38 -8.95561 147.15128 19121 ft 421 kts 325°
2026-05-08 11:38 -8.93182 147.13426 19695 ft 417 kts 325°
2026-05-08 11:38 -8.90695 147.11916 19963 ft 417 kts 339°
2026-05-08 11:38 -8.87885 147.11262 20027 ft 417 kts 353°
2026-05-08 11:39 -8.84981 147.10821 20026 ft 427 kts 352°
2026-05-08 11:39 -8.82023 147.10334 20040 ft 435 kts 351°
2026-05-08 11:39 -8.79054 147.09824 20040 ft 442 kts 351°
2026-05-08 11:39 -8.75997 147.09287 20068 ft 449 kts 351°
2026-05-08 11:40 -8.72895 147.08738 20104 ft 457 kts 351°
2026-05-08 11:40 -8.69748 147.08180 20271 ft 460 kts 351°
2026-05-08 11:40 -8.66591 147.07623 20604 ft 459 kts 351°
2026-05-08 11:40 -8.63452 147.07070 21059 ft 457 kts 350°
2026-05-08 11:41 -8.60317 147.06626 21475 ft 454 kts 355°
2026-05-08 11:41 -8.57165 147.06463 21829 ft 454 kts 359°
2026-05-08 11:41 -8.54008 147.06431 22174 ft 454 kts
2026-05-08 11:41 -8.50853 147.06438 22571 ft 453 kts
2026-05-08 11:42 -8.47706 147.06440 22979 ft 451 kts 360°
2026-05-08 11:42 -8.44573 147.06421 23405 ft 450 kts 359°
2026-05-08 11:42 -8.41446 147.06381 23750 ft 450 kts 359°
2026-05-08 11:42 -8.38321 147.06326 24017 ft 449 kts 359°
2026-05-08 11:43 -8.35179 147.06261 24040 ft 452 kts 359°
2026-05-08 11:43 -8.32046 147.06191 24044 ft 449 kts 358°
2026-05-08 11:43 -8.29976 147.06144 24046 ft 449 kts 358°
2026-05-08 11:43 -8.26853 147.06072 24059 ft 449 kts 358°
2026-05-08 11:44 -8.23728 147.06001 24058 ft 449 kts 358°
2026-05-08 11:44 -8.20604 147.05931 24060 ft 449 kts 358°
2026-05-08 11:44 -8.17476 147.05861 24058 ft 450 kts 358°
2026-05-08 11:44 -8.14345 147.05791 24060 ft 450 kts 358°
2026-05-08 11:45 -8.10159 147.05698 24059 ft 450 kts 359°
2026-05-08 11:45 -8.08092 147.05653 24051 ft 449 kts 359°
2026-05-08 11:45 -8.04964 147.05583 24051 ft 449 kts 359°
2026-05-08 11:45 -8.01837 147.05514 24055 ft 449 kts 359°
2026-05-08 11:46 -7.98712 147.05445 24052 ft 449 kts 359°
2026-05-08 11:46 -7.95586 147.05376 24056 ft 449 kts 359°
2026-05-08 11:46 -7.92461 147.05307 24055 ft 449 kts 359°
2026-05-08 11:46 -7.89337 147.05238 24052 ft 449 kts 359°
2026-05-08 11:47 -7.86220 147.05169 24055 ft 448 kts 359°
2026-05-08 11:47 -7.83099 147.05100 24055 ft 448 kts 359°
2026-05-08 11:47 -7.79983 147.05031 24054 ft 448 kts 359°
2026-05-08 11:47 -7.76864 147.04962 24042 ft 448 kts 359°
2026-05-08 11:48 -7.73747 147.04893 24040 ft 448 kts 359°
2026-05-08 11:48 -7.70631 147.04824 24041 ft 448 kts 359°
2026-05-08 11:48 -7.67517 147.04755 24040 ft 448 kts 359°
2026-05-08 11:48 -7.64402 147.04686 24035 ft 448 kts 359°
2026-05-08 11:49 -7.61287 147.04617 24033 ft 448 kts 359°
2026-05-08 11:49 -7.58170 147.04548 24034 ft 448 kts 359°
2026-05-08 11:49 -7.55051 147.04479 24034 ft 448 kts 359°
2026-05-08 11:49 -7.51934 147.04410 24019 ft 448 kts 359°
2026-05-08 11:50 -7.48812 147.04342 24017 ft 448 kts 359°
2026-05-08 11:50 -7.45692 147.04273 24023 ft 448 kts 359°
2026-05-08 11:50 -7.42573 147.04204 24018 ft 449 kts 359°
2026-05-08 11:50 -7.39450 147.04135 23985 ft 449 kts 359°
2026-05-08 11:51 -7.36307 147.04065 23253 ft 453 kts 359°
2026-05-08 11:51 -7.33177 147.03996 22652 ft 448 kts 359°
2026-05-08 11:51 -7.30080 147.03927 22027 ft 443 kts
2026-05-08 11:51 -7.27012 147.03860 21428 ft 439 kts 360°
2026-05-08 11:52 -7.23969 147.03792 20824 ft 435 kts 360°
2026-05-08 11:52 -7.20959 147.03650 20234 ft 432 kts 358°
2026-05-08 11:52 -7.18006 147.03422 19634 ft 430 kts 356°
2026-05-08 11:52 -7.15033 147.03161 19046 ft 428 kts 356°
2026-05-08 11:53 -7.12077 147.02898 18431 ft 426 kts 356°
2026-05-08 11:53 -7.09136 147.02646 17785 ft 423 kts 357°
2026-05-08 11:53 -7.06212 147.02404 17173 ft 419 kts 357°
2026-05-08 11:53 -7.03319 147.02170 16584 ft 415 kts 357°
2026-05-08 11:54 -7.00450 147.01943 16044 ft 411 kts 357°
2026-05-08 11:54 -6.97616 147.01719 15499 ft 407 kts 358°
2026-05-08 11:54 -6.94802 147.01498 14880 ft 405 kts 358°
2026-05-08 11:54 -6.91998 147.01278 14294 ft 404 kts 358°
2026-05-08 11:55 -6.89204 147.01058 13715 ft 402 kts 358°
2026-05-08 11:55 -6.86426 147.00839 13095 ft 399 kts 358°
2026-05-08 11:55 -6.83674 147.00622 12528 ft 395 kts 358°
2026-05-08 11:55 -6.80942 147.00406 11972 ft 392 kts 358°
2026-05-08 11:56 -6.78267 146.99950 11402 ft 393 kts 342°
2026-05-08 11:56 -6.75947 146.98551 11155 ft 386 kts 320°
2026-05-08 11:56 -6.74251 146.96512 10973 ft 376 kts 301°
2026-05-08 11:56 -6.73218 146.94143 10797 ft 366 kts 284°